| time (UTC) | temp F | wind direction | speed MPH | gust MPH | rain 1hr in | rain 24hr in | rain mn in | humidity % | barometer mb |
| 20260902130016 | 67 | 0.0 | 2.0 | 0.00 | 0.01 | 0.01 | 70 | 1018.6 | |
| 20260902125016 | 68 | 0.0 | 0.0 | 0.00 | 0.01 | 0.01 | 72 | 1018.6 | |
| 20260902124016 | 68 | 0.0 | 0.0 | 0.00 | 0.01 | 0.01 | 73 | 1018.5 | |
| 20260902123016 | 68 | 0.0 | 1.0 | 0.00 | 0.01 | 0.01 | 70 | 1018.6 | |
| 20260902122016 | 68 | 0.0 | 2.0 | 0.00 | 0.01 | 0.01 | 69 | 1018.7 | |
| 20260902121016 | 67 | 248 | 1.0 | 5.0 | 0.00 | 0.01 | 0.01 | 71 | 1018.7 |
| 20260902120016 | 67 | 0.0 | 4.0 | 0.00 | 0.01 | 0.01 | 75 | 1018.7 | |
| 20260902115036 | 66 | 0.0 | 0.0 | 0.00 | 0.01 | 0.01 | 77 | 1018.7 | |
| 20260902114038 | 66 | 0.0 | 3.0 | 0.00 | 0.01 | 0.01 | 77 | 1018.8 | |
| 20260902113018 | 66 | 0.0 | 5.0 | 0.00 | 0.01 | 0.01 | 76 | 1018.7 | |
| 20260902112018 | 66 | 0.0 | 4.0 | 0.00 | 0.01 | 0.01 | 74 | 1018.7 | |
| 20260902111018 | 67 | 270 | 1.0 | 6.0 | 0.00 | 0.01 | 0.01 | 73 | 1018.8 |
| 20260902110018 | 66 | 225 | 1.0 | 7.0 | 0.00 | 0.01 | 0.01 | 75 | 1018.9 |
| 20260902105018 | 66 | 0.0 | 3.0 | 0.00 | 0.01 | 0.01 | 74 | 1019.0 | |
| 20260902104038 | 66 | 248 | 1.0 | 6.0 | 0.00 | 0.01 | 0.01 | 74 | 1019.1 |
| 20260902103018 | 66 | 248 | 1.0 | 5.0 | 0.00 | 0.01 | 0.01 | 74 | 1019.1 |
| 20260902102018 | 66 | 248 | 1.0 | 6.0 | 0.00 | 0.01 | 0.01 | 75 | 1019.1 |
| 20260902101018 | 66 | 248 | 1.0 | 4.0 | 0.00 | 0.01 | 0.01 | 75 | 1019.2 |
| 20260902100038 | 65 | 225 | 1.0 | 4.0 | 0.00 | 0.01 | 0.01 | 76 | 1019.2 |
| 20260902095018 | 65 | 248 | 1.0 | 3.0 | 0.00 | 0.01 | 0.01 | 76 | 1019.1 |
| 20260902094018 | 65 | 270 | 1.0 | 6.0 | 0.00 | 0.01 | 0.01 | 74 | 1019.3 |
| 20260902093058 | 65 | 270 | 1.0 | 7.0 | 0.00 | 0.01 | 0.01 | 75 | 1019.3 |
| 20260902092018 | 65 | 0.0 | 6.0 | 0.00 | 0.01 | 0.01 | 75 | 1019.2 | |
| 20260902091018 | 65 | 270 | 1.0 | 7.0 | 0.00 | 0.01 | 0.01 | 75 | 1019.2 |
| 20260902090038 | 64 | 248 | 1.0 | 7.0 | 0.00 | 0.01 | 0.01 | 76 | 1019.1 |
| 20260902085017 | 63 | 0.0 | 6.0 | 0.00 | 0.01 | 0.01 | 80 | 1019.0 | |
| 20260902084017 | 63 | 0.0 | 3.0 | 0.00 | 0.01 | 0.01 | 80 | 1019.2 | |
| 20260902083017 | 62 | 248 | 1.0 | 6.0 | 0.00 | 0.01 | 0.01 | 81 | 1019.2 |
| 20260902082018 | 61 | 270 | 1.0 | 5.0 | 0.00 | 0.01 | 0.01 | 83 | 1019.2 |
| 20260902081018 | 61 | 248 | 1.0 | 5.0 | 0.00 | 0.01 | 0.01 | 84 | 1019.3 |
| 20260902080017 | 61 | 270 | 1.0 | 5.0 | 0.00 | 0.01 | 0.01 | 85 | 1019.3 |
| 20260902075018 | 60 | 0.0 | 3.0 | 0.00 | 0.01 | 0.01 | 87 | 1019.3 | |
| 20260902074018 | 60 | 0.0 | 2.0 | 0.00 | 0.01 | 0.01 | 88 | 1019.2 | |
| 20260902073018 | 60 | 0.0 | 2.0 | 0.00 | 0.01 | 0.01 | 89 | 1019.2 | |
| 20260902072017 | 59 | 270 | 1.0 | 5.0 | 0.00 | 0.01 | 0.01 | 89 | 1019.1 |
| 20260902071037 | 59 | 0.0 | 3.0 | 0.00 | 0.01 | 0.01 | 90 | 1019.0 | |
| 20260902070018 | 58 | 0.0 | 2.0 | 0.00 | 0.01 | 0.01 | 91 | 1019.0 | |
| 20260902065017 | 57 | 0.0 | 3.0 | 0.00 | 0.01 | 0.01 | 92 | 1018.9 | |
| 20260902064017 | 57 | 0.0 | 5.0 | 0.00 | 0.01 | 0.01 | 92 | 1019.0 | |
| 20260902063018 | 56 | 248 | 1.0 | 3.0 | 0.00 | 0.01 | 0.01 | 93 | 1019.1 |
| 20260902062017 | 56 | 0.0 | 2.0 | 0.00 | 0.01 | 0.01 | 93 | 1019.1 | |
| 20260902061017 | 56 | 270 | 1.0 | 4.0 | 0.00 | 0.01 | 0.01 | 94 | 1019.1 |
| 20260902060017 | 55 | 0.0 | 3.0 | 0.00 | 0.01 | 0.01 | 95 | 1019.0 | |
| 20260902055017 | 55 | 0.0 | 3.0 | 0.00 | 0.01 | 0.01 | 96 | 1019.0 | |
| 20260902054019 | 54 | 0.0 | 1.0 | 0.00 | 0.01 | 0.01 | 96 | 1019.1 | |
| 20260902053017 | 54 | 0.0 | 0.0 | 0.00 | 0.01 | 0.01 | 96 | 1019.0 | |
| 20260902052017 | 54 | 0.0 | 0.0 | 0.00 | 0.01 | 0.01 | 96 | 1019.0 | |
| 20260902051157 | 55 | 0.0 | 2.0 | 0.00 | 0.01 | 0.01 | 97 | 1018.9 | |
| 20260902050017 | 54 | 0.0 | 1.0 | 0.00 | 0.01 | 0.01 | 97 | 1019.0 | |
| 20260902045017 | 54 | 0.0 | 3.0 | 0.00 | 0.01 | 0.01 | 97 | 1018.9 | |
| 20260902044037 | 54 | 0.0 | 1.0 | 0.00 | 0.01 | 0.01 | 97 | 1018.9 | |
| 20260902043017 | 53 | 0.0 | 1.0 | 0.00 | 0.01 | 0.01 | 97 | 1019.0 | |
| 20260902042017 | 53 | 0.0 | 1.0 | 0.00 | 0.01 | 0.01 | 97 | 1019.0 | |
| 20260902041017 | 53 | 0.0 | 0.0 | 0.00 | 0.01 | 0.01 | 97 | 1019.1 | |
| 20260902040017 | 52 | 0.0 | 0.0 | 0.00 | 0.01 | 0.01 | 97 | 1019.2 | |
| 20260902035017 | 52 | 0.0 | 0.0 | 0.00 | 0.01 | 0.01 | 97 | 1019.0 | |
| 20260902034017 | 51 | 0.0 | 0.0 | 0.00 | 0.01 | 0.01 | 97 | 1018.9 | |
| 20260902033017 | 51 | 0.0 | 0.0 | 0.01 | 0.01 | 0.01 | 97 | 1019.0 | |
| 20260902032017 | 51 | 0.0 | 0.0 | 0.01 | 0.01 | 0.01 | 97 | 1019.1 | |
| 20260902031017 | 51 | 0.0 | 0.0 | 0.01 | 0.01 | 0.01 | 97 | 1019.2 | |
| 20260902030037 | 50 | 0.0 | 0.0 | 0.01 | 0.01 | 0.01 | 97 | 1019.3 | |
| 20260902025017 | 51 | 0.0 | 0.0 | 0.01 | 0.01 | 0.01 | 97 | 1019.3 | |
| 20260902024017 | 51 | 0.0 | 0.0 | 0.01 | 0.01 | 0.01 | 97 | 1019.5 | |
| 20260902023057 | 51 | 0.0 | 0.0 | 0.00 | 0.00 | 0.00 | 97 | 1019.5 | |
| 20260902022017 | 52 | 0.0 | 0.0 | 0.00 | 0.00 | 0.00 | 97 | 1019.5 | |
| 20260902021017 | 52 | 0.0 | 0.0 | 0.00 | 0.00 | 0.00 | 97 | 1019.5 | |
| 20260902020017 | 52 | 0.0 | 1.0 | 0.00 | 0.00 | 0.00 | 97 | 1019.4 | |
| 20260902015037 | 52 | 0.0 | 0.0 | 0.00 | 0.00 | 0.00 | 96 | 1019.4 | |
| 20260902014017 | 52 | 0.0 | 0.0 | 0.00 | 0.00 | 0.00 | 96 | 1019.3 | |
| 20260902013017 | 52 | 0.0 | 0.0 | 0.00 | 0.00 | 0.00 | 96 | 1019.3 | |
| 20260902012017 | 52 | 0.0 | 0.0 | 0.00 | 0.00 | 0.00 | 96 | 1019.3 | |
| 20260902011017 | 53 | 0.0 | 0.0 | 0.00 | 0.00 | 0.00 | 96 | 1019.2 | |
| 20260902010017 | 53 | 0.0 | 0.0 | 0.00 | 0.00 | 0.00 | 96 | 1019.3 | |
| 20260902005037 | 53 | 0.0 | 0.0 | 0.00 | 0.00 | 0.00 | 96 | 1019.3 | |
| 20260902004017 | 53 | 0.0 | 0.0 | 0.00 | 0.00 | 0.00 | 97 | 1019.4 | |
| 20260902003037 | 53 | 0.0 | 0.0 | 0.00 | 0.00 | 0.00 | 97 | 1019.6 | |
| 20260902002037 | 53 | 0.0 | 0.0 | 0.00 | 0.01 | 0.00 | 96 | 1019.5 | |
| 20260902001017 | 53 | 0.0 | 0.0 | 0.00 | 0.01 | 0.00 | 96 | 1019.5 | |
| 20260902000017 | 53 | 0.0 | 0.0 | 0.00 | 0.02 | 0.00 | 96 | 1019.6 | |
| 20260901235017 | 53 | 0.0 | 0.0 | 0.00 | 0.02 | 0.00 | 96 | 1019.5 | |
| 20260901234037 | 53 | 0.0 | 0.0 | 0.00 | 0.02 | 0.00 | 96 | 1019.7 | |
| 20260901233017 | 53 | 0.0 | 0.0 | 0.00 | 0.02 | 0.00 | 96 | 1019.6 | |
| 20260901232017 | 53 | 0.0 | 0.0 | 0.00 | 0.02 | 0.00 | 96 | 1019.6 | |
| 20260901231017 | 53 | 0.0 | 0.0 | 0.00 | 0.02 | 0.00 | 95 | 1019.5 | |
| 20260901230017 | 54 | 0.0 | 0.0 | 0.00 | 0.02 | 0.00 | 95 | 1019.5 | |
| 20260901225017 | 54 | 0.0 | 0.0 | 0.00 | 0.02 | 0.00 | 95 | 1019.5 | |
| 20260901224036 | 54 | 0.0 | 0.0 | 0.00 | 0.02 | 0.00 | 95 | 1019.4 | |
| 20260901223017 | 54 | 0.0 | 0.0 | 0.00 | 0.02 | 0.00 | 95 | 1019.3 | |
| 20260901222017 | 55 | 0.0 | 0.0 | 0.00 | 0.02 | 0.00 | 94 | 1019.3 | |
| 20260901221017 | 55 | 0.0 | 0.0 | 0.00 | 0.02 | 0.00 | 94 | 1019.4 | |
| 20260901220016 | 56 | 0.0 | 0.0 | 0.00 | 0.02 | 0.02 | 94 | 1019.4 | |
| 20260901215016 | 56 | 0.0 | 0.0 | 0.00 | 0.02 | 0.02 | 94 | 1019.5 | |
| 20260901214017 | 56 | 0.0 | 0.0 | 0.00 | 0.02 | 0.02 | 94 | 1019.4 | |
| 20260901213017 | 56 | 0.0 | 0.0 | 0.00 | 0.02 | 0.02 | 93 | 1019.3 | |
| 20260901212036 | 56 | 0.0 | 0.0 | 0.00 | 0.02 | 0.02 | 92 | 1019.4 | |
| 20260901211017 | 57 | 0.0 | 0.0 | 0.00 | 0.02 | 0.02 | 92 | 1019.4 | |
| 20260901210017 | 57 | 0.0 | 0.0 | 0.00 | 0.02 | 0.02 | 92 | 1019.4 | |
| 20260901205036 | 57 | 0.0 | 0.0 | 0.00 | 0.02 | 0.02 | 91 | 1019.5 | |
| 20260901204017 | 58 | 0.0 | 0.0 | 0.00 | 0.02 | 0.02 | 91 | 1019.4 | |
| 20260901203016 | 58 | 0.0 | 0.0 | 0.00 | 0.02 | 0.02 | 90 | 1019.4 | |
| 20260901202017 | 59 | 0.0 | 0.0 | 0.00 | 0.02 | 0.02 | 90 | 1019.3 | |
| 20260901201056 | 59 | 0.0 | 0.0 | 0.00 | 0.02 | 0.02 | 89 | 1019.3 | |
| 20260901200017 | 60 | 0.0 | 1.0 | 0.00 | 0.02 | 0.02 | 88 | 1019.3 | |
| 20260901195016 | 60 | 0.0 | 0.0 | 0.00 | 0.02 | 0.02 | 87 | 1019.3 | |
| 20260901194016 | 61 | 0.0 | 4.0 | 0.00 | 0.02 | 0.02 | 86 | 1019.4 | |
| 20260901193016 | 61 | 0.0 | 1.0 | 0.00 | 0.02 | 0.02 | 86 | 1019.5 | |
| 20260901192017 | 61 | 0.0 | 1.0 | 0.00 | 0.02 | 0.02 | 87 | 1019.4 | |
| 20260901191016 | 60 | 0.0 | 0.0 | 0.00 | 0.02 | 0.02 | 87 | 1019.3 | |
| 20260901190016 | 61 | 0.0 | 0.0 | 0.00 | 0.02 | 0.02 | 87 | 1019.2 | |
| 20260901185016 | 61 | 0.0 | 1.0 | 0.00 | 0.02 | 0.02 | 87 | 1019.1 | |
| 20260901184016 | 61 | 0.0 | 0.0 | 0.00 | 0.02 | 0.02 | 87 | 1019.0 | |
| 20260901183016 | 62 | 0.0 | 0.0 | 0.00 | 0.02 | 0.02 | 86 | 1018.8 | |
| 20260901182016 | 62 | 0.0 | 3.0 | 0.00 | 0.02 | 0.02 | 85 | 1018.6 | |
| 20260901181036 | 62 | 0.0 | 0.0 | 0.00 | 0.02 | 0.02 | 85 | 1018.5 | |
| 20260901180016 | 62 | 0.0 | 2.0 | 0.00 | 0.02 | 0.02 | 84 | 1018.5 | |
| 20260901175016 | 62 | 0.0 | 2.0 | 0.00 | 0.02 | 0.02 | 84 | 1018.4 | |
| 20260901174018 | 62 | 0.0 | 3.0 | 0.00 | 0.02 | 0.02 | 84 | 1018.3 | |
| 20260901173017 | 62 | 0.0 | 4.0 | 0.00 | 0.02 | 0.02 | 84 | 1018.4 | |
| 20260901172016 | 62 | 0.0 | 1.0 | 0.00 | 0.02 | 0.02 | 84 | 1018.3 | |
| 20260901171016 | 63 | 0.0 | 1.0 | 0.00 | 0.02 | 0.02 | 83 | 1018.3 | |
| 20260901170016 | 63 | 0.0 | 0.0 | 0.00 | 0.02 | 0.02 | 82 | 1018.3 | |
| 20260901165016 | 64 | 0.0 | 1.0 | 0.00 | 0.02 | 0.02 | 80 | 1018.3 | |
| 20260901164016 | 64 | 0.0 | 2.0 | 0.00 | 0.02 | 0.02 | 77 | 1018.3 | |
| 20260901163016 | 64 | 0.0 | 3.0 | 0.00 | 0.02 | 0.02 | 74 | 1018.3 | |
| 20260901162036 | 64 | 0.0 | 1.0 | 0.00 | 0.04 | 0.02 | 77 | 1018.2 | |
| 20260901161016 | 64 | 0.0 | 4.0 | 0.00 | 0.06 | 0.02 | 76 | 1018.2 | |
| 20260901160016 | 64 | 0.0 | 3.0 | 0.00 | 0.06 | 0.02 | 77 | 1018.2 | |
| 20260901155016 | 64 | 225 | 1.0 | 5.0 | 0.00 | 0.06 | 0.02 | 77 | 1018.1 |
| 20260901154036 | 65 | 0.0 | 2.0 | 0.00 | 0.06 | 0.02 | 75 | 1018.2 | |
| 20260901153016 | 65 | 0.0 | 2.0 | 0.00 | 0.06 | 0.02 | 74 | 1018.2 | |
| 20260901152016 | 65 | 0.0 | 3.0 | 0.00 | 0.06 | 0.02 | 73 | 1018.0 | |
| 20260901151016 | 66 | 248 | 1.0 | 5.0 | 0.00 | 0.06 | 0.02 | 73 | 1018.1 |
| 20260901150016 | 66 | 0.0 | 3.0 | 0.00 | 0.06 | 0.02 | 73 | 1017.9 | |
| 20260901145036 | 66 | 248 | 1.0 | 4.0 | 0.00 | 0.08 | 0.02 | 71 | 1018.0 |
| 20260901144016 | 67 | 0.0 | 4.0 | 0.00 | 0.08 | 0.02 | 73 | 1018.1 | |
| 20260901143016 | 69 | 0.0 | 4.0 | 0.00 | 0.10 | 0.02 | 69 | 1018.1 | |
| 20260901142018 | 69 | 270 | 1.0 | 7.0 | 0.00 | 0.10 | 0.02 | 66 | 1017.8 |
| 20260901141038 | 70 | 248 | 1.0 | 7.0 | 0.00 | 0.10 | 0.02 | 64 | 1017.7 |
| 20260901140038 | 71 | 248 | 2.0 | 11.0 | 0.00 | 0.10 | 0.02 | 63 | 1017.7 |
| 20260901135058 | 71 | 270 | 3.0 | 10.0 | 0.00 | 0.10 | 0.02 | 63 | 1017.8 |
| 20260901134018 | 71 | 248 | 1.0 | 4.0 | 0.00 | 0.10 | 0.02 | 63 | 1017.8 |
| 20260901133018 | 71 | 248 | 1.0 | 6.0 | 0.00 | 0.10 | 0.02 | 63 | 1017.8 |
| 20260901132038 | 71 | 248 | 1.0 | 5.0 | 0.00 | 0.10 | 0.02 | 62 | 1017.8 |
| 20260901131038 | 72 | 248 | 1.0 | 5.0 | 0.00 | 0.10 | 0.02 | 61 | 1017.9 |